EW7146 Weather Reports


time (UTC)temp
C
wind
direction
speed
KPH
gust
KPH
rain 1hr
cm
rain 24hr
cm
rain mn
cm
humidity
%
barometer
mb
20260906231242 23 45 11.3 24.1 0.00 0.00 0.00 31 1024.7
20260906230747 23 116 8.0 19.3 0.00 0.00 0.00 26 1024.7
20260906230242 24 73 4.8 14.5 0.00 0.00 0.00 23 1024.7
20260906230007 24 61 8.0 14.5 0.00 0.00 0.00 22 1024.6
20260906225729 24 109 9.7 14.5 0.00 0.00 0.00 23 1024.7
20260906224741 24 51 6.4 19.3 0.00 0.00 0.00 24 1024.8
20260906224243 24 86 4.8 19.3 0.00 0.00 0.00 23 1024.8
20260906223741 23 118 8.0 16.1 0.00 0.00 0.00 22 1024.8
20260906223507 23 58 8.0 16.1 0.00 0.00 0.00 23 1024.8
20260906222741 23 48 4.8 14.5 0.00 0.00 0.00 22 1024.8
20260906222242 23 94 4.8 17.7 0.00 0.00 0.00 23 1024.8
20260906221957 23 71 6.4 16.1 0.00 0.00 0.00 23 1024.8
20260906221841 23 148 8.0 17.7 0.00 0.00 0.00 23 1024.8
20260906220739 23 145 4.8 16.1 0.00 0.00 0.00 25 1024.9
20260906220237 23 135 6.4 16.1 0.00 0.00 0.00 24 1024.9
20260906215742 23 103 4.8 16.1 0.00 0.00 0.00 26 1024.9
20260906215246 23 141 8.0 16.1 0.00 0.00 0.00 25 1024.9
20260906214740 23 76 4.8 16.1 0.00 0.00 0.00 27 1024.9
20260906214241 23 75 4.8 16.1 0.00 0.00 0.00 28 1024.9
20260906213740 22 100 3.2 14.5 0.00 0.00 0.00 30 1025.0
20260906213241 22 87 8.0 16.1 0.00 0.00 0.00 31 1025.0
20260906212739 22 151 6.4 19.3 0.00 0.00 0.00 32 1025.1
20260906212240 22 107 8.0 19.3 0.00 0.00 0.00 32 1025.2
20260906211739 22 109 8.0 17.7 0.00 0.00 0.00 32 1025.2
20260906211240 22 114 3.2 16.1 0.00 0.00 0.00 32 1025.2
20260906210740 22 34 6.4 16.1 0.00 0.00 0.00 32 1025.2
20260906210239 22 114 4.8 17.7 0.00 0.00 0.00 33 1025.2
20260906210004 22 130 8.0 17.7 0.00 0.00 0.00 33 1025.2
20260906205239 22 104 6.4 19.3 0.00 0.00 0.00 34 1025.2
20260906204740 22 120 6.4 19.3 0.00 0.00 0.00 34 1025.2
20260906204239 22 102 6.4 17.7 0.00 0.00 0.00 33 1025.2
20260906203739 22 97 8.0 17.7 0.00 0.00 0.00 32 1025.2
20260906203241 22 103 4.8 14.5 0.00 0.00 0.00 32 1025.2
20260906202738 22 73 3.2 14.5 0.00 0.00 0.00 32 1025.3
20260906202239 22 128 3.2 14.5 0.00 0.00 0.00 32 1025.3
20260906201738 22 65 4.8 9.7 0.00 0.00 0.00 30 1025.4
20260906201238 22 111 3.2 9.7 0.00 0.00 0.00 32 1025.4
20260906200738 22 130 4.8 9.7 0.00 0.00 0.00 32 1025.4
20260906200238 22 125 4.8 9.7 0.00 0.00 0.00 34 1025.5
20260906195738 22 49 3.2 9.7 0.00 0.00 0.00 37 1025.5
20260906195244 21 106 4.8 9.7 0.00 0.00 0.00 37 1025.6
20260906194738 21 120 6.4 9.7 0.00 0.00 0.00 37 1025.7
20260906194242 21 113 4.8 8.0 0.00 0.00 0.00 37 1025.8
20260906193737 21 45 3.2 6.4 0.00 0.00 0.00 38 1025.8
20260906193237 21 72 4.8 8.0 0.00 0.00 0.00 37 1026.0
20260906192737 21 107 3.2 11.3 0.00 0.00 0.00 37 1026.1
20260906192238 21 111 4.8 11.3 0.00 0.00 0.00 40 1026.1
20260906191738 20 96 3.2 9.7 0.00 0.00 0.00 41 1026.3
20260906191237 20 76 4.8 11.3 0.00 0.00 0.00 42 1026.4
20260906190736 20 73 6.4 11.3 0.00 0.00 0.00 44 1026.4
20260906190237 19 121 3.2 8.0 0.00 0.00 0.00 45 1026.5
20260906185736 19 90 3.2 8.0 0.00 0.00 0.00 44 1026.6
20260906185236 19 124 3.2 8.0 0.00 0.00 0.00 45 1026.7
20260906185004 19 118 3.2 8.0 0.00 0.00 0.00 45 1026.8
20260906184237 18 75 3.2 8.0 0.00 0.00 0.00 45 1026.9
20260906184001 18 89 3.2 9.7 0.00 0.00 0.00 45 1027.0
20260906183237 18 32 3.2 9.7 0.00 0.00 0.00 46 1027.1
20260906182735 18 123 3.2 6.4 0.00 0.00 0.00 46 1027.2
20260906182237 18 90 0.0 4.8 0.00 0.00 0.00 45 1027.3
20260906181736 18 48 1.6 4.8 0.00 0.00 0.00 45 1027.3
20260906181459 17 355 1.6 6.4 0.00 0.00 0.00 46 1027.6
20260906180735 17 27 3.2 6.4 0.00 0.00 0.00 45 1027.6
20260906180235 17 235 1.6 8.0 0.00 0.00 0.00 47 1027.7
20260906175735 17 104 4.8 8.0 0.00 0.00 0.00 47 1027.7
20260906175235 17 118 3.2 9.7 0.00 0.00 0.00 48 1027.8
20260906174735 17 133 3.2 9.7 0.00 0.00 0.00 49 1027.9
20260906174236 16 107 3.2 4.8 0.00 0.00 0.00 49 1027.8
20260906173739 16 212 0.0 3.2 0.00 0.00 0.00 50 1027.8
20260906173235 15 343 0.0 4.8 0.00 0.00 0.00 52 1027.9
20260906173002 15 1 1.6 4.8 0.00 0.00 0.00 53 1028.0
20260906172235 15 97 0.0 4.8 0.00 0.00 0.00 53 1028.0
20260906171735 15 56 1.6 6.4 0.00 0.00 0.00 54 1028.3
20260906171234 15 72 3.2 6.4 0.00 0.00 0.00 56 1028.3
20260906170733 14 230 1.6 6.4 0.00 0.00 0.00 56 1028.4
20260906170235 14 56 3.2 4.8 0.00 0.00 0.00 58 1028.5
20260906165734 13 321 1.6 6.4 0.00 0.00 0.00 59 1028.4
20260906165239 13 49 1.6 6.4 0.00 0.00 0.00 60 1028.5
20260906164733 13 78 3.2 6.4 0.00 0.00 0.00 60 1028.7
20260906164233 13 86 3.2 8.0 0.00 0.00 0.00 61 1028.7
20260906163734 13 111 1.6 8.0 0.00 0.00 0.00 61 1028.9
20260906163233 13 114 1.6 8.0 0.00 0.00 0.00 62 1028.9
20260906162734 13 123 3.2 8.0 0.00 0.00 0.00 64 1028.9
20260906162232 13 93 1.6 6.4 0.00 0.00 0.00 63 1028.9
20260906161734 12 80 1.6 3.2 0.00 0.00 0.00 62 1029.1
20260906161232 12 94 0.0 1.6 0.00 0.00 0.00 65 1029.1
20260906160734 12 63 0.0 1.6 0.00 0.00 0.00 66 1029.1
20260906160501 11 65 0.0 4.8 0.00 0.00 0.00 69 1029.1
20260906155950 11 59 1.6 6.4 0.00 0.00 0.00 68 1029.1
20260906155238 11 56 3.2 6.4 0.00 0.00 0.00 70 1029.2
20260906154733 11 78 0.0 1.6 0.00 0.00 0.00 70 1029.3
20260906154233 10 106 0.0 1.6 0.00 0.00 0.00 71 1029.3
20260906153733 10 145 0.0 1.6 0.00 0.00 0.00 73 1029.3
20260906153233 10 111 0.0 3.2 0.00 0.00 0.00 74 1029.4
20260906152731 10 73 0.0 3.2 0.00 0.00 0.00 75 1029.4
20260906152233 9 161 0.0 3.2 0.00 0.00 0.00 77 1029.5
20260906151732 8 130 0.0 3.2 0.00 0.00 0.00 81 1029.6
20260906151505 7 130 0.0 1.6 0.00 0.00 0.00 82 1029.6
20260906150732 7 121 0.0 3.2 0.00 0.00 0.00 85 1029.8
20260906150718 7 35 0.0 3.2 0.00 0.00 0.00 86 1029.7
20260906145939 6 61 1.6 3.2 0.00 0.00 0.00 90 1029.9
20260906145823 6 56 0.0 3.2 0.00 0.00 0.00 87 1029.8
20260906144732 6 71 0.0 1.6 0.00 0.00 0.00 93 1029.9
20260906144230 5 71 0.0 1.6 0.00 0.00 0.00 93 1029.9
20260906143732 4 79 0.0 3.2 0.00 0.00 0.00 93 1030.0
20260906143237 4 78 1.6 3.2 0.00 0.00 0.00 93 1029.9
20260906142736 3 165 0.0 0.0 0.00 0.00 0.00 93 1030.0
20260906142230 3 165 0.0 0.0 0.00 0.00 0.00 93 1030.0
20260906141731 3 165 0.0 0.0 0.00 0.00 0.00 93 1029.9
20260906141232 3 165 0.0 0.0 0.00 0.00 0.00 93 1030.0
20260906140730 3 165 0.0 0.0 0.00 0.00 0.00 92 1030.0
20260906140231 3 165 0.0 0.0 0.00 0.00 0.00 92 1030.0
20260906135730 3 165 0.0 0.0 0.00 0.00 0.00 92 1030.0
20260906135233 3 164 0.0 1.6 0.00 0.00 0.00 91 1030.0
20260906134730 3 165 0.0 1.6 0.00 0.00 0.00 93 1030.1
20260906134229 3 165 0.0 0.0 0.00 0.00 0.00 93 1030.0
20260906133729 3 165 0.0 0.0 0.00 0.00 0.00 93 1030.1
20260906133229 3 164 0.0 0.0 0.00 0.00 0.00 92 1030.2
20260906132730 3 164 0.0 0.0 0.00 0.00 0.00 92 1030.2
20260906132228 3 164 0.0 0.0 0.00 0.00 0.00 92 1030.1
20260906131730 3 164 0.0 0.0 0.00 0.00 0.00 91 1030.1
20260906131450 3 164 0.0 0.0 0.00 0.00 0.00 91 1030.1
20260906130730 3 164 0.0 0.0 0.00 0.00 0.00 90 1030.1
20260906130230 3 164 0.0 0.0 0.00 0.00 0.00 91 1030.2
20260906125729 3 164 0.0 0.0 0.00 0.00 0.00 90 1030.3
20260906125229 3 164 0.0 3.2 0.00 0.00 0.00 89 1030.3
20260906124727 3 164 0.0 3.2 0.00 0.00 0.00 90 1030.3
20260906124229 3 164 0.0 1.6 0.00 0.00 0.00 90 1030.3
20260906123728 4 164 0.0 1.6 0.00 0.00 0.00 90 1030.4
20260906123718 4 164 0.0 1.6 0.00 0.00 0.00 89 1030.3
20260906122728 4 164 0.0 1.6 0.00 0.00 0.00 89 1030.3
20260906122229 4 149 1.6 1.6 0.00 0.00 0.00 90 1030.4
20260906121727 4 204 0.0 0.0 0.00 0.00 0.00 89 1030.3
20260906121227 4 209 0.0 0.0 0.00 0.00 0.00 90 1030.4
20260906120728 4 209 0.0 0.0 0.00 0.00 0.00 89 1030.4
20260906120227 4 209 0.0 0.0 0.00 0.00 0.00 89 1030.4
20260906115728 4 209 0.0 0.0 0.00 0.00 0.00 89 1030.4
20260906115226 5 209 0.0 1.6 0.00 0.00 0.00 88 1030.3
20260906114728 5 209 0.0 1.6 0.00 0.00 0.00 87 1030.4
20260906114226 5 200 0.0 1.6 0.00 0.00 0.00 87 1030.3
20260906113728 5 197 0.0 0.0 0.00 0.00 0.00 87 1030.4
20260906113227 5 197 0.0 0.0 0.00 0.00 0.00 87 1030.4
20260906112726 5 197 0.0 0.0 0.00 0.00 0.00 86 1030.4
20260906112226 5 197 0.0 0.0 0.00 0.00 0.00 85 1030.4
20260906111726 5 197 0.0 0.0 0.00 0.00 0.00 85 1030.6
20260906111227 5 197 0.0 1.6 0.00 0.00 0.00 85 1030.4
20260906110726 5 197 0.0 1.6 0.00 0.00 0.00 85 1030.6
20260906110446 5 197 1.6 1.6 0.00 0.00 0.00 85 1030.6
20260906105725 5 199 0.0 0.0 0.00 0.00 0.00 86 1030.6
20260906105235 6 199 0.0 1.6 0.00 0.00 0.00 84 1030.7
20260906105227 6 199 0.0 1.6 0.00 0.00 0.00 84 1030.7
20260906104225 6 217 0.0 1.6 0.00 0.00 0.00 84 1030.8
20260906103953 6 217 0.0 3.2 0.00 0.00 0.00 84 1030.8
20260906103226 6 217 1.6 3.2 0.00 0.00 0.00 84 1030.7
20260906102727 6 217 0.0 1.6 0.00 0.00 0.00 85 1030.8
20260906102225 6 217 0.0 3.2 0.00 0.00 0.00 84 1030.8
20260906101727 6 217 3.2 3.2 0.00 0.00 0.00 85 1030.8
20260906101225 6 224 0.0 4.8 0.00 0.00 0.00 84 1030.8
20260906100724 6 224 0.0 4.8 0.00 0.00 0.00 83 1030.8
20260906100225 6 214 3.2 4.8 0.00 0.00 0.00 84 1030.8
20260906095948 6 204 1.6 4.8 0.00 0.00 0.00 83 1030.8
20260906095225 6 183 0.0 3.2 0.00 0.00 0.00 83 1030.7
20260906094730 7 209 0.0 3.2 0.00 0.00 0.00 84 1030.7
20260906094226 7 214 1.6 3.2 0.00 0.00 0.00 83 1030.8
20260906093945 7 213 1.6 3.2 0.00 0.00 0.00 84 1030.7
20260906093225 7 200 0.0 3.2 0.00 0.00 0.00 84 1030.7
20260906092946 7 203 0.0 1.6 0.00 0.00 0.00 84 1030.8
20260906092223 7 164 0.0 1.6 0.00 0.00 0.00 84 1030.7
20260906091723 7 162 0.0 1.6 0.00 0.00 0.00 84 1030.8
20260906091222 7 161 1.6 3.2 0.00 0.00 0.00 83 1030.9
20260906090724 7 204 1.6 3.2 0.00 0.00 0.00 85 1030.8
20260906090229 7 241 0.0 1.6 0.00 0.00 0.00 84 1030.8
20260906085725 7 214 0.0 1.6 0.00 0.00 0.00 84 1030.7
20260906085224 7 220 0.0 0.0 0.00 0.00 0.00 84 1030.8
20260906084724 7 220 0.0 0.0 0.00 0.00 0.00 84 1030.9
20260906084223 7 220 0.0 0.0 0.00 0.00 0.00 84 1031.0
20260906083728 7 200 0.0 0.0 0.00 0.00 0.00 84 1030.9
20260906083223 7 235 0.0 0.0 0.00 0.00 0.00 84 1030.9
20260906082722 7 235 0.0 0.0 0.00 0.00 0.00 83 1031.0
20260906082223 7 235 0.0 0.0 0.00 0.00 0.00 83 1031.0
20260906081722 7 235 0.0 0.0 0.00 0.00 0.00 83 1030.9
20260906081226 8 235 0.0 0.0 0.00 0.00 0.00 83 1031.0
20260906080723 8 235 0.0 0.0 0.00 0.00 0.00 84 1031.1
20260906080223 7 227 0.0 3.2 0.00 0.00 0.00 84 1031.1
20260906075947 7 204 0.0 3.2 0.00 0.00 0.00 84 1031.1
20260906075222 7 206 0.0 0.0 0.00 0.00 0.00 85 1031.0
20260906074722 7 206 0.0 0.0 0.00 0.00 0.00 84 1031.1
20260906074221 7 206 0.0 0.0 0.00 0.00 0.00 84 1031.1
20260906073722 8 206 0.0 0.0 0.00 0.00 0.00 82 1031.1
20260906073227 8 206 0.0 0.0 0.00 0.00 0.00 81 1031.1
20260906072722 8 206 0.0 0.0 0.00 0.00 0.00 81 1031.2
20260906072223 8 241 0.0 0.0 0.00 0.00 0.00 84 1031.2
20260906072209 8 241 0.0 1.6 0.00 0.00 0.00 83 1031.3
20260906071221 8 220 0.0 1.6 0.00 0.00 0.00 85 1031.2
20260906070720 8 219 0.0 1.6 0.00 0.00 0.00 85 1031.1
20260906070443 8 212 0.0 1.6 0.00 0.00 0.00 84 1031.2
20260906065945 8 212 0.0 0.0 0.00 0.00 0.00 84 1031.2
20260906065221 8 212 0.0 0.0 0.00 0.00 0.00 83 1031.2
20260906064720 8 212 0.0 0.0 0.00 0.00 0.00 84 1031.2
20260906064221 8 212 0.0 0.0 0.00 0.00 0.00 83 1031.2
20260906063723 8 212 0.0 0.0 0.00 0.00 0.00 83 1031.3
20260906063220 8 212 0.0 0.0 0.00 0.00 0.00 82 1031.3
20260906062720 8 212 0.0 0.0 0.00 0.00 0.00 82 1031.3
20260906062219 8 212 0.0 0.0 0.00 0.00 0.00 81 1031.3
20260906061719 9 212 0.0 0.0 0.00 0.00 0.00 80 1031.2
20260906061219 9 212 0.0 0.0 0.00 0.00 0.00 80 1031.1
20260906060722 9 212 0.0 0.0 0.00 0.00 0.00 79 1031.0
20260906060224 9 212 0.0 0.0 0.00 0.00 0.00 78 1031.1
20260906055943 9 212 0.0 1.6 0.00 0.00 0.00 77 1031.1
20260906055219 9 212 0.0 3.2 0.00 0.00 0.00 77 1031.1
20260906054724 10 223 1.6 3.2 0.00 0.00 0.00 79 1031.1
20260906054440 10 197 0.0 3.2 0.00 0.00 0.00 78 1031.0
20260906053718 10 185 0.0 0.0 0.00 0.00 0.00 77 1030.9
20260906053220 10 185 0.0 0.0 0.00 0.00 0.00 76 1031.0
20260906052949 10 185 0.0 0.0 0.00 0.00 0.00 76 1031.1
20260906052219 10 185 0.0 0.0 0.00 0.00 0.00 76 1031.0
20260906051934 11 185 0.0 0.0 0.00 0.00 0.00 74 1031.2
20260906051819 10 185 0.0 0.0 0.00 0.00 0.00 74 1031.2
20260906050943 11 185 0.0 0.0 0.00 0.00 0.00 75 1031.3
20260906050218 11 185 0.0 0.0 0.00 0.00 0.00 74 1031.3
20260906045718 11 185 0.0 1.6 0.00 0.00 0.00 74 1031.3
20260906045225 11 185 0.0 1.6 0.00 0.00 0.00 73 1031.3
20260906044719 11 185 0.0 1.6 0.00 0.00 0.00 73 1031.2
20260906044217 12 41 0.0 0.0 0.00 0.00 0.00 72 1031.3
20260906043719 12 41 0.0 0.0 0.00 0.00 0.00 74 1031.2
20260906043221 12 41 0.0 0.0 0.00 0.00 0.00 73 1031.2
20260906042719 12 41 0.0 0.0 0.00 0.00 0.00 73 1031.2
20260906042221 13 41 0.0 3.2 0.00 0.00 0.00 72 1031.3
20260906041716 13 41 0.0 4.8 0.00 0.00 0.00 71 1031.4
20260906041433 13 114 0.0 8.0 0.00 0.00 0.00 69 1031.3
20260906040716 13 99 3.2 8.0 0.00 0.00 0.00 69 1031.3
20260906040218 13 111 3.2 6.4 0.00 0.00 0.00 67 1031.4
20260906035717 13 109 1.6 4.8 0.00 0.00 0.00 66 1031.4
20260906035217 13 117 0.0 4.8 0.00 0.00 0.00 66 1031.3
20260906034716 13 111 1.6 4.8 0.00 0.00 0.00 65 1031.2
20260906034439 14 128 0.0 6.4 0.00 0.00 0.00 63 1031.1
20260906033715 14 154 1.6 9.7 0.00 0.00 0.00 63 1030.9
20260906033215 13 186 3.2 9.7 0.00 0.00 0.00 63 1031.0
20260906032938 13 162 4.8 6.4 0.00 0.00 0.00 64 1030.8
20260906032215 13 235 1.6 1.6 0.00 0.00 0.00 64 1030.7
20260906031943 14 235 0.0 0.0 0.00 0.00 0.00 63 1030.7
20260906031215 14 235 0.0 3.2 0.00 0.00 0.00 62 1030.7
20260906030716 14 235 1.6 3.2 0.00 0.00 0.00 62 1030.7
20260906030442 14 244 0.0 3.2 0.00 0.00 0.00 62 1030.6
20260906025714 14 220 0.0 4.8 0.00 0.00 0.00 62 1030.6
20260906025216 14 171 1.6 4.8 0.00 0.00 0.00 61 1030.6
20260906024711 15 206 1.6 4.8 0.00 0.00 0.00 61 1030.6
20260906024210 15 165 1.6 4.8 0.00 0.00 0.00 60 1030.6
20260906023714 15 140 1.6 4.8 0.00 0.00 0.00 60 1030.6
20260906023216 15 49 0.0 4.8 0.00 0.00 0.00 59 1030.6
20260906022714 15 39 1.6 4.8 0.00 0.00 0.00 59 1030.6
20260906022216 15 73 0.0 6.4 0.00 0.00 0.00 58 1030.7
20260906022200 15 23 0.0 11.3 0.00 0.00 0.00 58 1030.4
20260906021214 15 69 4.8 11.3 0.00 0.00 0.00 57 1030.3
20260906020709 15 52 6.4 9.7 0.00 0.00 0.00 55 1030.3
20260906020209 16 41 8.0 11.3 0.00 0.00 0.00 53 1030.2
20260906015711 16 45 4.8 16.1 0.00 0.00 0.00 53 1030.2
20260906015435 16 92 6.4 19.3 0.00 0.00 0.00 52 1030.1
20260906014715 16 73 8.0 24.1 0.00 0.00 0.00 50 1030.1
20260906014218 17 27 8.0 24.1 0.00 0.00 0.00 47 1030.2
20260906013718 18 31 4.8 14.5 0.00 0.00 0.00 41 1030.2
20260906013213 18 20 6.4 9.7 0.00 0.00 0.00 40 1029.7
20260906012713 18 4 3.2 11.3 0.00 0.00 0.00 41 1029.7
20260906012214 18 37 6.4 11.3 0.00 0.00 0.00 40 1029.6
20260906011712 18 338 4.8 9.7 0.00 0.00 0.00 39 1029.5
20260906011210 18 331 4.8 9.7 0.00 0.00 0.00 40 1029.5
20260906010712 18 353 4.8 9.7 0.00 0.00 0.00 39 1029.4
20260906010213 18 353 6.4 14.5 0.00 0.00 0.00 39 1029.5
20260906005712 19 334 8.0 16.1 0.00 0.00 0.00 38 1029.4
20260906005212 19 14 11.3 16.1 0.00 0.00 0.00 37 1029.4
20260906004717 19 41 4.8 16.1 0.00 0.00 0.00 39 1029.4
20260906004212 20 28 4.8 14.5 0.00 0.00 0.00 39 1029.3
20260906003712 20 347 3.2 14.5 0.00 0.00 0.00 41 1029.2
20260906003208 19 30 6.4 14.5 0.00 0.00 0.00 40 1029.3
20260906002709 19 49 4.8 14.5 0.00 0.00 0.00 39 1029.2
20260906002432 19 341 8.0 9.7 0.00 0.00 0.00 40 1029.2
20260906001712 19 56 3.2 11.3 0.00 0.00 0.00 39 1029.1
20260906001437 20 31 4.8 11.3 0.00 0.00 0.00 39 1029.2
20260906000711 19 35 6.4 11.3 0.00 0.00 0.00 39 1029.1
20260906000212 19 41 4.8 11.3 0.00 0.00 0.00 40 1029.3
20260905235715 19 330 6.4 16.1 0.00 0.00 0.00 40 1029.3
20260905235211 19 16 3.2 16.1 0.00 0.00 0.00 40 1029.3
20260905234710 19 343 4.8 17.7 0.00 0.00 0.00 39 1029.3
20260905234208 19 343 11.3 17.7 0.00 0.00 0.00 38 1029.3
20260905233710 19 39 9.7 17.7 0.00 0.00 0.00 37 1029.2
20260905233211 20 333 8.0 16.1 0.00 0.00 0.00 37 1029.2
20260905232711 20 63 4.8 19.3 0.00 0.00 0.00 38 1029.2
20260905232210 20 37 9.7 19.3 0.00 0.00 0.00 37 1029.1